User: anonymous   Login
Location: The Jewett Observatory
(46.7288°N, 117.1525°W)
Time: 00:07:47
(UTC-07:00)
Language:

Cosmos 1844 Rocket - Orbit

View from above orbital plane
View from above orbital plane
View from above satellite
View from above satellite

Ground track
Ground track

The orbit data is extracted from the following two-line orbital elements,

1 17974U 87041B   15185.97117911  .00000239  00000-0  14228-3 0  9998
2 17974 071.0087 332.4583 0012583 035.4907 102.9041 14.17170546455634
Epoch (UTC): 04 July 2015 23:18:29
Eccentricity: 0.0012583
inclination: 71.0087°
perigee height: 826 km
apogee height: 844 km
right ascension of ascending node: 332.4583°
argument of perigee: 35.4907°
revolutions per day: 14.17170546
mean anomaly at epoch: 102.9041°
orbit number at epoch: 45563

The dashed part of the orbit path shows where the satellite is in the earth's shadow,  

DLR